55.3F
Current conditions from King Hill
Updated every 5 minutes
 
  Friday October 22, 2021

Observations for Westford

Westford

44° 37' 38"N, 73° 02' 29"W, Elevation 850 ft.
Eastern Time

Hourly observations for the last 72 hours

Date Time Temperature (°F) Humi-
dity

(%)
Wind
(mph)
Pressure Rain (in)
Air Dew 6 Hour 1 Hr 3 Hr 6 Hr Day
Alt
(in)
Sea
Level

(mb)
Max Min
22 08:00 55.0 54.2 58.3 54.7 97 S 4 G 12 29.64 1003.6 0.03 0.25 0.25
22 07:00 54.8 54.0 97 S 6 G 14 29.61 1002.7 0.01 0.25
22 06:00 55.0 54.2 97 S 5 G 15 29.59 1002.2 0.02 0.24
22 05:00 55.0 53.9 96 SSE 3 G 11 29.59 1002.2 0.12 0.22 0.22
22 04:00 55.3 53.6 94 S 6 G 15 29.59 1002.2 0.10 0.10
22 03:00 57.4 53.6 87 S 5 G 11 29.60 1002.5 0.00
22 02:00 58.2 53.4 58.2 50.5 84 S 9 G 24 29.61 1002.7 0.01 0.01 0.00
22 01:00 56.4 52.9 88 SSE 4 G 9 29.63 1003.4 0.00
22 00:00 54.1 52.1 93 S 1 G 7 29.67 1004.8 0.01 0.28
21 23:00 52.5 52.0 98 S 1 G 6 29.70 1005.8 0.27
21 22:00 50.8 50.0 97 S 0 G 1 29.72 1006.5 0.27
21 21:00 50.9 50.1 97 Calm 29.74 1007.0 0.27
21 20:00 52.7 51.3 56.1 52.6 95 Calm 29.74 1007.3 0.03 0.27
21 19:00 53.5 52.1 95 S 1 G 7 29.76 1007.7 0.27
21 18:00 55.0 53.0 93 S 0 G 4 29.76 1007.9 0.27
21 17:00 56.0 54.3 94 S 1 G 6 29.77 1008.3 0.03 0.27
21 16:00 55.5 54.1 95 SSE 4 G 9 29.78 1008.7 0.27
21 15:00 54.5 53.4 96 SSE 3 G 11 29.80 1009.2 0.03 0.27
21 14:00 54.1 53.0 57.2 53.9 96 S 7 G 14 29.84 1010.4 0.09 0.19 0.24 0.24
21 13:00 54.4 53.0 95 SSE 4 G 13 29.87 1011.4 0.06 0.15
21 12:00 55.2 53.8 95 S 2 G 12 29.87 1011.5 0.04 0.09
21 11:00 54.2 51.9 92 S 3 G 11 29.88 1011.8 0.05 0.05 0.05
21 10:00 57.1 52.3 84 S 5 G 11 29.89 1012.1 0.00
21 09:00 55.0 51.2 87 S 4 G 6 29.89 1012.4 0.00
21 08:00 54.1 50.3 54.1 49.5 87 S 3 G 10 29.89 1012.2 0.00
21 07:00 52.9 49.7 89 S 6 G 10 29.88 1012.0 0.00
21 06:00 52.2 49.4 90 SSE 4 G 8 29.89 1012.3 0.00
21 05:00 51.1 48.3 90 S 4 G 10 29.89 1012.3 0.00
21 04:00 51.4 48.6 90 S 3 G 8 29.89 1012.3 0.00
21 03:00 49.7 47.2 91 S 2 G 7 29.89 1012.4 0.00
21 02:00 50.5 48.0 54.5 48.1 91 S 3 G 7 29.90 1012.5 0.00
21 01:00 49.5 47.3 92 S 3 G 5 29.89 1012.2 0.00
21 00:00 51.9 48.5 88 S 0 G 4 29.90 1012.5 0.01
20 23:00 53.5 49.1 85 S 0 G 5 29.90 1012.6 0.01
20 22:00 53.1 49.9 89 S 2 G 5 29.89 1012.4 0.01
20 21:00 49.9 48.5 95 N 1 G 4 29.89 1012.3 0.01
20 20:00 48.6 46.7 66.8 48.6 93 Calm 29.89 1012.3 0.01
20 19:00 52.0 48.9 89 Calm 29.88 1012.0 0.01
20 18:00 56.2 50.1 80 Calm 29.88 1011.8 0.01
20 17:00 66.1 53.2 63 N 0 G 4 29.87 1011.7 0.01
20 16:00 66.0 52.2 61 Calm 29.88 1011.8 0.01
20 15:00 65.3 52.8 64 SW 0 G 5 29.88 1011.9 0.01
20 14:00 63.8 51.8 64.1 43.8 65 W 4 G 9 29.89 1012.2 0.01
20 13:00 62.1 51.0 67 W 0 G 6 29.89 1012.4 0.01
20 12:00 59.2 50.6 73 WNW 1 G 7 29.91 1012.7 0.01
20 11:00 56.9 49.4 76 W 4 G 9 29.91 1012.8 0.01
20 10:00 53.3 50.1 89 W 3 G 10 29.90 1012.7 0.01
20 09:00 46.6 46.1 98 SW 1 G 6 29.89 1012.4 0.01
20 08:00 43.9 43.1 45.0 41.5 97 Calm 29.88 1011.8 0.01 0.01 0.01
20 07:00 43.0 42.2 97 Calm 29.85 1011.0 0.01 0.01
20 06:00 42.4 41.1 95 Calm 29.84 1010.5 0.00
20 05:00 44.8 42.6 92 Calm 29.82 1009.7 0.00
20 04:00 44.3 43.0 95 Calm 29.80 1009.2 0.00
20 03:00 42.4 41.3 96 Calm 29.79 1008.8 0.00
20 02:00 42.2 41.1 45.2 39.2 96 Calm 29.78 1008.5 0.00
20 01:00 41.0 39.9 96 Calm 29.78 1008.4 0.00
20 00:00 40.3 39.3 96 Calm 29.77 1008.3 0.00
19 23:00 39.2 37.9 95 Calm 29.78 1008.5 0.00
19 22:00 40.4 38.8 94 Calm 29.78 1008.5 0.00
19 21:00 42.3 39.3 89 Calm 29.77 1008.3 0.00
19 20:00 45.1 42.3 48.8 45.0 90 Calm 29.78 1008.6 0.00
19 19:00 45.4 41.2 85 SW 0 G 5 29.78 1008.6 0.00
19 18:00 46.0 41.4 84 SW 1 G 3 29.78 1008.4 0.00
19 17:00 48.2 39.6 72 SW 1 G 4 29.77 1008.2 0.00
19 16:00 48.4 39.8 72 SSW 2 G 6 29.77 1008.1 0.00
19 15:00 48.7 40.4 73 SW 0 G 5 29.78 1008.5 0.00
19 14:00 47.2 40.7 47.9 41.5 78 SSW 3 G 8 29.79 1008.8 0.00
19 13:00 47.4 39.9 75 SW 2 G 5 29.81 1009.5 0.00
19 12:00 46.8 39.0 74 SW 5 G 13 29.84 1010.5 0.00
19 11:00 45.9 38.8 76 SW 7 G 13 29.85 1010.9 0.00
19 10:00 46.9 39.4 75 WSW 5 G 16 29.86 1011.1 0.00
19 09:00 42.4 37.3 82 W 3 G 16 29.85 1010.9 0.00

Data generated by WxSolution Version 1.9.1.7, Build 2018.11.24.


 
 
Current Radar Loop:

Copyright © WestfordWeather.net 2007-2021. All rights reserved.